STARLINK-33672, 63326

Orbit data source: Space-Track

STARLINK-33672, 63326 is a payload satellite owned by SpaceX/Seattle (US) in LEO that was launched on Tue, 18 Mar 2025 UTC via an FALCON 9 launch vehicle from the Air Force Eastern Test Range (AFETR). Payload-class satellites include a variety of spacecraft equipped with specific instruments for various scientific and technological missions. These include communications satellites like Starlink; space stations such as the ISS; scientific satellites like the Hubble; Earth observation satellites from companies like Planet Labs, Umbra, and HawkEye 360; GPS; miniature CubeSats for education and research; and military/defense satellites.

Loading next visibility...
Identifier
63326, 2025-057V
Orbit
LEO
Last TLE update
1 day ago
Origin
Manufacturer
SpaceX/Seattle
Mission
Operational spacecraft
Bus & Motor
STARLINK V2MO, Unknown motor
Mass
575 kg wet, ~530 kg dry
Launch date (UTC)
2025-03-18 (1 month ago)
Launch vehicle
FALCON 9
Launch site
Air Force Eastern Test Range (AFETR)
Object type
Payload
Rocket body
Debris
Shape & HBR
Unknown
Radar Cross Section
Large (>1 m²)

Expand to show TLE details & history

TLE from 1 day ago
0 STARLINK-33672
1 63326U 25057V   25119.00722481 -.00002470  00000-0 -80296-4 0  9995
2 63326  42.9970   7.7491 0000800 238.1339 121.9434 15.27572855  7657
Epoch: 2025-04-29T00:10Z
Definitive object data (Epoch: 2025-04-29T00:10:24.223Z)
Latitude
-0.00008°
Longitude
147.93501°
Altitude
483.136 km
Speed
7.625 km/s
True Right ascension
00h 30m 59s
True Declination
0° 00' 00"
Sunlit
Object was in daylight at TLE epoch
Visualization TLE readout
Latitude
-19.42993°
Longitude
117.73723°
Altitude
487.277 km
Speed
7.622 km/s
Apparent Right ascension
01h 30m 32s
Apparent Declination
-45° 12' 58"
Sunlit
Object is in daylight
Visualization observer readout
Local Sidereal Time
18:08:17
Azimuth
120.313° SE
Elevation
-40.182°
Doppler factor
1
Orbital elements
Apogee altitude
485.565 km
Perigee altitude
484.467 km
Semi-major axis
6,863.153 km
Eccentricity
0.00008
Inclination
42.997°
RAAN
7.7491°
Arg. of periapsis
238.1339°
True anomaly
121.95118°
Mean anomaly
121.9434°
Eccentric anomaly
121.94729°
Mean motion
3.81731 °/min
BSTAR
-0.000080296
Orbital period
94.31 mins
Loading maneuver chart data...
Loading SW <> Apogee altitude chart data...
Loading historical data...
Loading historical data...
Loading historical data...
Loading historical data...
Loading historical data...
Loading historical data...
Loading historical data...

STARLINK-33672 Visibility forecast

Observer location: undefined°, undefined°

Span
Click to sort rows by Start time (UTC) header in descending order
Start Az.
Max El. time (UTC)
Max El. Az.
Max El.
End time (UTC)
End Az.
4 mins2025-04-30 18:44:15.416Z186.742° SSW2025-04-30 18:46:15.416Z146.773° SSE20.301°2025-04-30 18:48:15.416Z105.538° ESE
6 mins2025-04-30 20:22:15.416Z249.504° W2025-04-30 20:25:15.416Z79.368° E43.902°2025-04-30 20:28:15.416Z72.231° E
5 mins2025-04-30 22:02:15.416Z293.491° NW2025-04-30 22:04:15.416Z10.278° NNE37.828°2025-04-30 22:07:15.416Z74.182° E
5 mins2025-04-30 23:41:15.416Z291.618° WNW2025-04-30 23:43:15.416Z18.035° NNE44.572°2025-04-30 23:46:15.416Z103.352° ESE
4 mins2025-05-01 01:20:15.416Z254.528° W2025-05-01 01:22:15.416Z204.147° SW24.464°2025-05-01 01:24:15.416Z162.42° S
|